sat.trackr.live / text

‹ back to catalog

STARLINK-5737

NORAD 55570 · 2023-020B

PAYLOAD ACTIVE UNKNOWN

§ Identity

Operator
Country
US
Launch date
2023-02-12
Launch site
AFETR
Launch vehicle
Mass (kg)
RCS (m²)

Purposes: comms

External: N2YO · Heavens-Above · Gunter

§ Orbital elements

Epoch: 2026-05-25T03:18:43.067808Z

Period
94.27 min
Inclination
43.0055°
Eccentricity
0.0001738
Mean motion
15.27576168 rev/d
Perigee alt
481.9 km
Apogee alt
484.3 km
Semi-major
6,861.2 km
B*
6.4261e-6
RAAN
293.5449°
Arg perigee
265.3962°
Mean anomaly
94.6692°
Rev number
18,060

§ Raw data

STARLINK-57371 55570U 23020B   26145.13799847 -.00000086  00000+0  64261-5 0  99932 55570  43.0055 293.5449 0001738 265.3962  94.6692 15.27576168180608

JSON: /api/v1/satellites/55570 · /tle

For live sub-satellite position, see the globe view (requires WebGL).

§ Visibility from observer

Set your observer location to see the next 7 days of passes ≥ 10°. The values pass through the URL so the page stays shareable.

No JS? Fill the form by hand. The geolocation button needs JavaScript.